World > North America > United States > Michigan > Lansing   City of Lansing, MI

Hourly Lansing, MI Regional Weather

Feedback E-mail the Weather

Quick WX

Lansing, MI Weather Maps

°F °C°F °C
Lansing Weather Map
UTC Time: 9/25/2022, 21:24
Your Time:

Lansing, MI Regional Weather

Expires:202209252200;;450075
ASUS43 KDTX 252110
RWRMI 
MICHIGAN HOURLY REGIONAL WEATHER ROUNDUP
NATIONAL WEATHER SERVICE DETROIT/PONTIAC MI
500 PM EDT SUN SEP 25 2022

NOTE: "FAIR" INDICATES FEW OR NO CLOUDS BELOW 12,000 FEET WITH NO
SIGNIFICANT WEATHER AND/OR OBSTRUCTION TO VISIBILITY.


MIZ047>049-052>055-059>063-066>070-074>076-081>083-252200-
SOUTHEAST LOWER MICHIGAN
  
CITY           SKY/WX    TMP DP  RH WIND       PRES   REMARKS
ADRIAN         CLOUDY    58  55  90 NW12G20   29.69S                  
ALMA           CLOUDY    58  51  77 W12G24    29.66R                  
ANN ARBOR      CLOUDY    60  54  80 W13       29.65S                  
BAD AXE        PTSUNNY   60  48  63 W12G24    29.58S                  
CARO           CLOUDY    60  49  68 W9        29.60F                  
DETROIT CITY   CLOUDY    66  54  65 W7G18     29.61S                  
DETROIT        LGT RAIN  61  56  83 W13       29.64S                  
FLINT          CLOUDY    60  54  80 W12       29.63F                  
GROSSE ILE     LGT RAIN  60  55  83 W14       29.63S                  
HILLSDALE      LGT RAIN  55  53  94 NW12G17   29.70R                  
HOWELL         CLOUDY    57  56  94 W6        29.66R                  

CITY           SKY/WX    TMP DP  RH WIND       PRES   REMARKS
JACKSON        PTSUNNY   60  56  86 W10       29.67S                  
LAMBERTVILLE   LGT RAIN  63  54  73 W10G22    29.67R                  
LANSING        CLOUDY    59  53  80 NW7       29.67S                  
LAPEER         PTSUNNY   63  47  55 W7        29.61F                  
MASON          RAIN      59  52  78 NW14      29.67R                  
MONROE         CLOUDY    63  57  80 W16G23    29.64S                  
MT. CLEMENS    HVY RAIN  61  55  82 W12       29.59R                  
PONTIAC        LGT RAIN  58  54  86 NW15      29.63R                  
PORT HOPE        N/A     63  50  62 W14G24    29.55S                  
PORT HURON     CLOUDY    61  54  77 W3        29.60R                  
TRI CITIES     CLOUDY    59  48  67 W17G25    29.63S                  
MIDLAND        PTSUNNY   64  50  59 W9G16     29.62R                  
TROY           HVY RAIN  63  55  75 NW18G26   29.65R                  
SAGINAW HB     CLOUDY    61  47  60 W13G20    29.62S                  
$$

SKY/WX - Weather  TMP - Temperature  DP - Dew Point  RH - Humidity
WIND - Wind Direction/Speed PRES - Barometric Pressure VSB - Visibility
WCI - Wind Chill Index E13G22 Wind - East Wind 13 mph/Gusts of 22 mph

Trending Headlines

Trending Entertainment Headlines

Lansing Radar Loop

Use the map search tool if you want to place a location marker on the radar map...

Lansing Quick Facts

National Two Day Weather Forecast


E-mail the Lansing Weather Forecast

Voice your opinion or tell us about page issues...